| time (UTC) | temp C | wind direction | speed KPH | gust KPH | rain 1hr cm | rain 24hr cm | rain mn cm | humidity % | barometer mb |
| 20260906182401 | 35 | 123 | 1.6 | 6.4 | 0.00 | 0.00 | 0.00 | 51 | 1015.9 |
| 20260906181904 | 35 | 162 | 3.2 | 8.0 | 0.00 | 0.00 | 0.00 | 52 | 1015.9 |
| 20260906180857 | 35 | 170 | 0.0 | 6.4 | 0.00 | 0.00 | 0.00 | 56 | 1016.1 |
| 20260906180351 | 35 | 124 | 0.0 | 4.8 | 0.00 | 0.00 | 0.00 | 54 | 1016.3 |
| 20260906175845 | 35 | 158 | 1.6 | 4.8 | 0.00 | 0.00 | 0.00 | 54 | 1016.3 |
| 20260906175341 | 34 | 82 | 1.6 | 4.8 | 0.00 | 0.00 | 0.00 | 55 | 1016.5 |
| 20260906174841 | 33 | 105 | 0.0 | 3.2 | 0.00 | 0.00 | 0.00 | 57 | 1016.5 |
| 20260906173837 | 33 | 79 | 1.6 | 6.4 | 0.00 | 0.00 | 0.00 | 57 | 1016.7 |
| 20260906173335 | 33 | 78 | 3.2 | 8.0 | 0.00 | 0.00 | 0.00 | 56 | 1016.8 |
| 20260906172833 | 34 | 80 | 3.2 | 8.0 | 0.00 | 0.00 | 0.00 | 56 | 1016.8 |
| 20260906171331 | 33 | 256 | 1.6 | 9.7 | 0.00 | 0.00 | 0.00 | 58 | 1017.0 |
| 20260906170328 | 32 | 171 | 1.6 | 4.8 | 0.00 | 0.00 | 0.00 | 60 | 1017.2 |
| 20260906165829 | 32 | 172 | 1.6 | 4.8 | 0.00 | 0.00 | 0.00 | 58 | 1017.3 |
| 20260906165329 | 32 | 177 | 1.6 | 4.8 | 0.00 | 0.00 | 0.00 | 58 | 1017.3 |
| 20260906164329 | 32 | 180 | 1.6 | 6.4 | 0.00 | 0.00 | 0.00 | 59 | 1017.3 |
| 20260906163829 | 32 | 144 | 3.2 | 6.4 | 0.00 | 0.00 | 0.00 | 58 | 1017.4 |
| 20260906163329 | 32 | 136 | 3.2 | 6.4 | 0.00 | 0.00 | 0.00 | 58 | 1017.3 |
| 20260906162828 | 32 | 116 | 3.2 | 9.7 | 0.00 | 0.00 | 0.00 | 59 | 1017.3 |
| 20260906162329 | 32 | 155 | 3.2 | 9.7 | 0.00 | 0.00 | 0.00 | 59 | 1017.2 |
| 20260906161829 | 32 | 169 | 3.2 | 9.7 | 0.00 | 0.00 | 0.00 | 59 | 1017.2 |
| 20260906161328 | 32 | 137 | 1.6 | 8.0 | 0.00 | 0.00 | 0.00 | 59 | 1017.2 |
| 20260906160828 | 32 | 136 | 3.2 | 8.0 | 0.00 | 0.00 | 0.00 | 60 | 1017.2 |
| 20260906160329 | 32 | 159 | 3.2 | 8.0 | 0.00 | 0.00 | 0.00 | 59 | 1017.2 |
| 20260906155829 | 32 | 83 | 3.2 | 6.4 | 0.00 | 0.00 | 0.00 | 59 | 1017.1 |
| 20260906155328 | 32 | 144 | 3.2 | 6.4 | 0.00 | 0.00 | 0.00 | 61 | 1017.1 |
| 20260906154331 | 32 | 120 | 1.6 | 4.8 | 0.00 | 0.00 | 0.00 | 61 | 1017.0 |
| 20260906153331 | 32 | 126 | 1.6 | 4.8 | 0.00 | 0.00 | 0.00 | 61 | 1016.9 |
| 20260906152831 | 32 | 87 | 1.6 | 4.8 | 0.00 | 0.00 | 0.00 | 61 | 1016.8 |
| 20260906152328 | 32 | 115 | 1.6 | 4.8 | 0.00 | 0.00 | 0.00 | 61 | 1016.8 |
| 20260906151328 | 32 | 245 | 1.6 | 6.4 | 0.00 | 0.00 | 0.00 | 61 | 1016.8 |
| 20260906150822 | 32 | 74 | 1.6 | 6.4 | 0.00 | 0.00 | 0.00 | 62 | 1016.8 |
| 20260906145819 | 31 | 103 | 3.2 | 8.0 | 0.00 | 0.00 | 0.00 | 62 | 1016.8 |
| 20260906145318 | 31 | 117 | 3.2 | 8.0 | 0.00 | 0.00 | 0.00 | 63 | 1016.7 |
| 20260906144818 | 31 | 130 | 3.2 | 8.0 | 0.00 | 0.00 | 0.00 | 62 | 1016.7 |
| 20260906144319 | 31 | 146 | 3.2 | 8.0 | 0.00 | 0.00 | 0.00 | 63 | 1016.6 |
| 20260906143816 | 31 | 51 | 1.6 | 6.4 | 0.00 | 0.00 | 0.00 | 63 | 1016.8 |
| 20260906142814 | 30 | 132 | 1.6 | 9.7 | 0.00 | 0.00 | 0.00 | 65 | 1016.8 |
| 20260906142315 | 30 | 82 | 3.2 | 9.7 | 0.00 | 0.00 | 0.00 | 65 | 1016.8 |
| 20260906141813 | 30 | 86 | 3.2 | 11.3 | 0.00 | 0.00 | 0.00 | 66 | 1016.7 |
| 20260906141312 | 30 | 103 | 3.2 | 11.3 | 0.00 | 0.00 | 0.00 | 67 | 1016.7 |
| 20260906140812 | 29 | 92 | 3.2 | 8.0 | 0.00 | 0.00 | 0.00 | 68 | 1016.7 |
| 20260906140312 | 29 | 98 | 3.2 | 6.4 | 0.00 | 0.00 | 0.00 | 69 | 1016.7 |
| 20260906135813 | 28 | 78 | 1.6 | 4.8 | 0.00 | 0.00 | 0.00 | 70 | 1016.6 |
| 20260906135311 | 28 | 121 | 1.6 | 4.8 | 0.00 | 0.00 | 0.00 | 71 | 1016.6 |
| 20260906134810 | 28 | 84 | 1.6 | 4.8 | 0.00 | 0.00 | 0.00 | 72 | 1016.7 |
| 20260906134313 | 28 | 83 | 1.6 | 4.8 | 0.00 | 0.00 | 0.00 | 73 | 1016.6 |
| 20260906133807 | 27 | 86 | 1.6 | 4.8 | 0.00 | 0.00 | 0.00 | 74 | 1016.6 |
| 20260906133300 | 27 | 147 | 1.6 | 4.8 | 0.00 | 0.00 | 0.00 | 76 | 1016.5 |
| 20260906132754 | 27 | 178 | 1.6 | 4.8 | 0.00 | 0.00 | 0.00 | 78 | 1016.6 |
| 20260906132248 | 26 | 109 | 0.0 | 4.8 | 0.00 | 0.00 | 0.00 | 80 | 1016.5 |
| 20260906131742 | 26 | 114 | 0.0 | 3.2 | 0.00 | 0.00 | 0.00 | 82 | 1016.5 |
| 20260906130730 | 25 | 160 | 0.0 | 1.6 | 0.00 | 0.00 | 0.00 | 84 | 1016.5 |
| 20260906130224 | 25 | 160 | 0.0 | 1.6 | 0.00 | 0.00 | 0.00 | 85 | 1016.5 |
| 20260906125718 | 24 | 160 | 0.0 | 0.0 | 0.00 | 0.00 | 0.00 | 85 | 1016.3 |
| 20260906125213 | 24 | 160 | 0.0 | 0.0 | 0.00 | 0.00 | 0.00 | 85 | 1016.3 |
| 20260906124706 | 24 | 160 | 0.0 | 1.6 | 0.00 | 0.00 | 0.00 | 85 | 1016.2 |
| 20260906124200 | 24 | 160 | 0.0 | 1.6 | 0.00 | 0.00 | 0.00 | 85 | 1016.2 |
| 20260906123654 | 23 | 160 | 0.0 | 0.0 | 0.00 | 0.00 | 0.00 | 85 | 1016.0 |
| 20260906123149 | 23 | 160 | 0.0 | 0.0 | 0.00 | 0.00 | 0.00 | 85 | 1016.0 |
| 20260906122642 | 23 | 160 | 0.0 | 0.0 | 0.00 | 0.00 | 0.00 | 85 | 1016.0 |
| 20260906122136 | 23 | 160 | 0.0 | 0.0 | 0.00 | 0.00 | 0.00 | 85 | 1016.0 |
| 20260906121630 | 23 | 160 | 0.0 | 0.0 | 0.00 | 0.00 | 0.00 | 86 | 1016.0 |
| 20260906121125 | 23 | 160 | 0.0 | 0.0 | 0.00 | 0.00 | 0.00 | 86 | 1015.9 |
| 20260906120619 | 23 | 160 | 0.0 | 0.0 | 0.00 | 0.00 | 0.00 | 85 | 1015.7 |
| 20260906120113 | 23 | 160 | 0.0 | 0.0 | 0.00 | 0.00 | 0.00 | 85 | 1015.5 |
| 20260906115606 | 23 | 160 | 0.0 | 0.0 | 0.00 | 0.00 | 0.00 | 85 | 1015.5 |
| 20260906115100 | 23 | 160 | 0.0 | 0.0 | 0.00 | 0.00 | 0.00 | 85 | 1015.6 |
| 20260906114555 | 23 | 160 | 0.0 | 0.0 | 0.00 | 0.00 | 0.00 | 84 | 1015.5 |
| 20260906114048 | 23 | 160 | 0.0 | 0.0 | 0.00 | 0.00 | 0.00 | 84 | 1015.5 |
| 20260906113542 | 23 | 160 | 0.0 | 0.0 | 0.00 | 0.00 | 0.00 | 84 | 1015.6 |
| 20260906113036 | 23 | 160 | 0.0 | 0.0 | 0.00 | 0.00 | 0.00 | 83 | 1015.6 |
| 20260906112530 | 24 | 160 | 0.0 | 0.0 | 0.00 | 0.00 | 0.00 | 83 | 1015.5 |
| 20260906112024 | 24 | 160 | 0.0 | 0.0 | 0.00 | 0.00 | 0.00 | 83 | 1015.6 |
| 20260906111518 | 24 | 160 | 0.0 | 0.0 | 0.00 | 0.00 | 0.00 | 83 | 1015.5 |
| 20260906110506 | 24 | 160 | 0.0 | 0.0 | 0.00 | 0.00 | 0.00 | 82 | 1015.4 |
| 20260906110000 | 24 | 160 | 0.0 | 0.0 | 0.00 | 0.00 | 0.00 | 82 | 1015.4 |
| 20260906105454 | 24 | 160 | 0.0 | 0.0 | 0.00 | 0.00 | 0.00 | 81 | 1015.3 |
| 20260906104948 | 24 | 160 | 0.0 | 0.0 | 0.00 | 0.00 | 0.00 | 82 | 1015.3 |
| 20260906104442 | 24 | 160 | 0.0 | 0.0 | 0.00 | 0.00 | 0.00 | 81 | 1015.3 |
| 20260906103937 | 24 | 160 | 0.0 | 0.0 | 0.00 | 0.00 | 0.00 | 80 | 1015.4 |
| 20260906103430 | 25 | 160 | 0.0 | 0.0 | 0.00 | 0.00 | 0.00 | 80 | 1015.4 |
| 20260906102924 | 25 | 160 | 0.0 | 0.0 | 0.00 | 0.00 | 0.00 | 79 | 1015.3 |
| 20260906102418 | 25 | 160 | 0.0 | 0.0 | 0.00 | 0.00 | 0.00 | 78 | 1015.3 |
| 20260906101913 | 25 | 160 | 0.0 | 0.0 | 0.00 | 0.00 | 0.00 | 78 | 1015.4 |
| 20260906101406 | 25 | 160 | 0.0 | 0.0 | 0.00 | 0.00 | 0.00 | 78 | 1015.4 |
| 20260906100901 | 25 | 160 | 0.0 | 0.0 | 0.00 | 0.00 | 0.00 | 78 | 1015.5 |
| 20260906100354 | 25 | 160 | 0.0 | 0.0 | 0.00 | 0.00 | 0.00 | 78 | 1015.4 |
| 20260906095850 | 25 | 160 | 0.0 | 0.0 | 0.00 | 0.00 | 0.00 | 77 | 1015.4 |
| 20260906095342 | 25 | 160 | 0.0 | 0.0 | 0.00 | 0.00 | 0.00 | 77 | 1015.5 |
| 20260906094836 | 25 | 160 | 0.0 | 0.0 | 0.00 | 0.00 | 0.00 | 76 | 1015.4 |
| 20260906094330 | 25 | 160 | 0.0 | 0.0 | 0.00 | 0.00 | 0.00 | 76 | 1015.4 |
| 20260906093825 | 25 | 160 | 0.0 | 0.0 | 0.00 | 0.00 | 0.00 | 76 | 1015.3 |
| 20260906093318 | 26 | 160 | 0.0 | 0.0 | 0.00 | 0.00 | 0.00 | 76 | 1015.4 |
| 20260906092812 | 26 | 160 | 0.0 | 0.0 | 0.00 | 0.00 | 0.00 | 76 | 1015.3 |
| 20260906092306 | 26 | 160 | 0.0 | 0.0 | 0.00 | 0.00 | 0.00 | 75 | 1015.3 |
| 20260906090748 | 26 | 160 | 0.0 | 0.0 | 0.00 | 0.00 | 0.00 | 74 | 1015.2 |
| 20260906085737 | 26 | 160 | 0.0 | 0.0 | 0.00 | 0.00 | 0.00 | 73 | 1015.1 |
| 20260906085230 | 26 | 160 | 0.0 | 0.0 | 0.00 | 0.00 | 0.00 | 73 | 1015.0 |
| 20260906084724 | 26 | 160 | 0.0 | 0.0 | 0.00 | 0.00 | 0.00 | 73 | 1014.9 |
| 20260906084218 | 26 | 160 | 0.0 | 0.0 | 0.00 | 0.00 | 0.00 | 73 | 1014.9 |
| 20260906083205 | 27 | 160 | 0.0 | 3.2 | 0.00 | 0.00 | 0.00 | 72 | 1014.8 |
| 20260906082708 | 27 | 160 | 0.0 | 1.6 | 0.00 | 0.00 | 0.00 | 72 | 1014.9 |
| 20260906081706 | 27 | 160 | 0.0 | 0.0 | 0.00 | 0.00 | 0.00 | 71 | 1015.0 |
| 20260906081204 | 27 | 160 | 0.0 | 0.0 | 0.00 | 0.00 | 0.00 | 71 | 1015.0 |
| 20260906080703 | 27 | 160 | 0.0 | 1.6 | 0.00 | 0.00 | 0.00 | 71 | 1014.9 |
| 20260906080201 | 27 | 160 | 0.0 | 3.2 | 0.00 | 0.00 | 0.00 | 70 | 1014.9 |
| 20260906075702 | 27 | 160 | 0.0 | 3.2 | 0.00 | 0.00 | 0.00 | 70 | 1014.9 |
| 20260906075202 | 27 | 160 | 0.0 | 1.6 | 0.00 | 0.00 | 0.00 | 70 | 1014.8 |
| 20260906074701 | 27 | 160 | 0.0 | 1.6 | 0.00 | 0.00 | 0.00 | 69 | 1014.9 |
| 20260906074201 | 28 | 160 | 0.0 | 0.0 | 0.00 | 0.00 | 0.00 | 69 | 1014.9 |
| 20260906073702 | 28 | 160 | 0.0 | 0.0 | 0.00 | 0.00 | 0.00 | 69 | 1014.8 |
| 20260906073201 | 28 | 160 | 0.0 | 1.6 | 0.00 | 0.00 | 0.00 | 69 | 1014.9 |
| 20260906072701 | 28 | 160 | 0.0 | 3.2 | 0.00 | 0.00 | 0.00 | 69 | 1015.0 |
| 20260906072202 | 28 | 160 | 1.6 | 9.7 | 0.00 | 0.00 | 0.00 | 69 | 1014.9 |
| 20260906071702 | 28 | 160 | 1.6 | 9.7 | 0.00 | 0.00 | 0.00 | 69 | 1014.9 |
| 20260906070701 | 28 | 159 | 1.6 | 6.4 | 0.00 | 0.00 | 0.00 | 68 | 1014.8 |
| 20260906065659 | 28 | 156 | 1.6 | 6.4 | 0.00 | 0.00 | 0.00 | 68 | 1014.9 |
| 20260906064141 | 28 | 183 | 1.6 | 4.8 | 0.00 | 0.00 | 0.00 | 67 | 1015.1 |
| 20260906063635 | 28 | 154 | 1.6 | 4.8 | 0.00 | 0.00 | 0.00 | 67 | 1015.1 |
| 20260906063129 | 28 | 154 | 1.6 | 4.8 | 0.00 | 0.00 | 0.00 | 67 | 1015.1 |
| 20260906062623 | 29 | 154 | 1.6 | 4.8 | 0.00 | 0.00 | 0.00 | 67 | 1015.1 |
| 20260906062117 | 29 | 150 | 3.2 | 6.4 | 0.00 | 0.00 | 0.00 | 66 | 1015.2 |
| 20260906061610 | 29 | 146 | 3.2 | 8.0 | 0.00 | 0.00 | 0.00 | 66 | 1015.1 |
| 20260906061105 | 29 | 172 | 1.6 | 8.0 | 0.00 | 0.00 | 0.00 | 66 | 1015.2 |
| 20260906060052 | 29 | 97 | 3.2 | 8.0 | 0.00 | 0.00 | 0.00 | 66 | 1015.1 |
| 20260906055546 | 29 | 136 | 3.2 | 9.7 | 0.00 | 0.00 | 0.00 | 66 | 1015.1 |
| 20260906055041 | 29 | 142 | 3.2 | 9.7 | 0.00 | 0.00 | 0.00 | 67 | 1015.2 |
| 20260906054535 | 29 | 141 | 3.2 | 9.7 | 0.00 | 0.00 | 0.00 | 67 | 1015.2 |
| 20260906054029 | 29 | 169 | 1.6 | 9.7 | 0.00 | 0.00 | 0.00 | 67 | 1015.2 |
| 20260906053523 | 29 | 155 | 1.6 | 9.7 | 0.00 | 0.00 | 0.00 | 67 | 1015.2 |
| 20260906053017 | 29 | 138 | 1.6 | 9.7 | 0.00 | 0.00 | 0.00 | 67 | 1015.2 |
| 20260906052511 | 29 | 76 | 1.6 | 6.4 | 0.00 | 0.00 | 0.00 | 67 | 1015.2 |
| 20260906052005 | 29 | 107 | 1.6 | 11.3 | 0.00 | 0.00 | 0.00 | 67 | 1015.2 |
| 20260906051458 | 29 | 116 | 1.6 | 11.3 | 0.00 | 0.00 | 0.00 | 67 | 1015.2 |
| 20260906050952 | 29 | 114 | 1.6 | 6.4 | 0.00 | 0.00 | 0.00 | 67 | 1015.3 |
| 20260906050447 | 29 | 115 | 1.6 | 6.4 | 0.00 | 0.00 | 0.00 | 67 | 1015.2 |
| 20260906045939 | 29 | 104 | 1.6 | 4.8 | 0.00 | 0.00 | 0.00 | 67 | 1015.3 |
| 20260906045433 | 29 | 100 | 0.0 | 4.8 | 0.00 | 0.00 | 0.00 | 67 | 1015.3 |
| 20260906044927 | 29 | 103 | 1.6 | 4.8 | 0.00 | 0.00 | 0.00 | 66 | 1015.2 |
| 20260906044421 | 29 | 101 | 1.6 | 4.8 | 0.00 | 0.00 | 0.00 | 66 | 1015.3 |
| 20260906043916 | 29 | 136 | 0.0 | 4.8 | 0.00 | 0.00 | 0.00 | 66 | 1015.3 |
| 20260906043410 | 29 | 86 | 0.0 | 3.2 | 0.00 | 0.00 | 0.00 | 66 | 1015.3 |
| 20260906042904 | 29 | 86 | 1.6 | 3.2 | 0.00 | 0.00 | 0.00 | 66 | 1015.3 |
| 20260906042358 | 29 | 86 | 1.6 | 3.2 | 0.00 | 0.00 | 0.00 | 65 | 1015.3 |
| 20260906041853 | 29 | 87 | 1.6 | 4.8 | 0.00 | 0.00 | 0.00 | 65 | 1015.3 |
| 20260906041346 | 29 | 89 | 1.6 | 4.8 | 0.00 | 0.00 | 0.00 | 65 | 1015.2 |
| 20260906040840 | 29 | 84 | 1.6 | 4.8 | 0.00 | 0.00 | 0.00 | 65 | 1015.2 |
| 20260906040334 | 29 | 98 | 1.6 | 4.8 | 0.00 | 0.00 | 0.00 | 65 | 1015.1 |
| 20260906035828 | 29 | 102 | 1.6 | 3.2 | 0.00 | 0.00 | 0.00 | 65 | 1015.1 |
| 20260906035322 | 29 | 105 | 0.0 | 3.2 | 0.00 | 0.00 | 0.00 | 65 | 1015.1 |
| 20260906034815 | 29 | 105 | 0.0 | 3.2 | 0.00 | 0.00 | 0.00 | 65 | 1015.0 |
| 20260906034309 | 29 | 111 | 0.0 | 0.0 | 0.00 | 0.00 | 0.00 | 65 | 1014.9 |
| 20260906033808 | 29 | 110 | 0.0 | 0.0 | 0.00 | 0.00 | 0.00 | 65 | 1014.9 |
| 20260906033307 | 29 | 110 | 0.0 | 0.0 | 0.00 | 0.00 | 0.00 | 65 | 1014.8 |
| 20260906032806 | 29 | 111 | 0.0 | 0.0 | 0.00 | 0.00 | 0.00 | 65 | 1014.8 |
| 20260906032306 | 29 | 110 | 0.0 | 0.0 | 0.00 | 0.00 | 0.00 | 65 | 1014.8 |
| 20260906031802 | 29 | 111 | 0.0 | 0.0 | 0.00 | 0.00 | 0.00 | 65 | 1014.7 |
| 20260906031300 | 29 | 111 | 0.0 | 0.0 | 0.00 | 0.00 | 0.00 | 65 | 1014.6 |
| 20260906025759 | 29 | 111 | 0.0 | 3.2 | 0.00 | 0.00 | 0.00 | 65 | 1014.4 |
| 20260906025256 | 29 | 111 | 0.0 | 3.2 | 0.00 | 0.00 | 0.00 | 66 | 1014.4 |
| 20260906024754 | 29 | 111 | 1.6 | 4.8 | 0.00 | 0.00 | 0.00 | 66 | 1014.3 |
| 20260906024253 | 29 | 111 | 0.0 | 4.8 | 0.00 | 0.00 | 0.00 | 65 | 1014.2 |
| 20260906023253 | 30 | 204 | 0.0 | 0.0 | 0.00 | 0.00 | 0.00 | 64 | 1013.9 |
| 20260906022752 | 30 | 204 | 0.0 | 0.0 | 0.00 | 0.00 | 0.00 | 64 | 1013.9 |
| 20260906022251 | 30 | 204 | 0.0 | 0.0 | 0.00 | 0.00 | 0.00 | 63 | 1013.8 |
| 20260906021751 | 30 | 204 | 0.0 | 0.0 | 0.00 | 0.00 | 0.00 | 63 | 1013.6 |
| 20260906021247 | 30 | 204 | 0.0 | 0.0 | 0.00 | 0.00 | 0.00 | 63 | 1013.6 |
| 20260906020748 | 30 | 204 | 0.0 | 0.0 | 0.00 | 0.00 | 0.00 | 62 | 1013.7 |
| 20260906020247 | 30 | 204 | 0.0 | 0.0 | 0.00 | 0.00 | 0.00 | 62 | 1013.5 |
| 20260906015747 | 30 | 204 | 0.0 | 0.0 | 0.00 | 0.00 | 0.00 | 62 | 1013.5 |
| 20260906015248 | 30 | 204 | 0.0 | 0.0 | 0.00 | 0.00 | 0.00 | 62 | 1013.5 |
| 20260906014748 | 30 | 204 | 0.0 | 0.0 | 0.00 | 0.00 | 0.00 | 62 | 1013.4 |
| 20260906014247 | 30 | 204 | 0.0 | 0.0 | 0.00 | 0.00 | 0.00 | 62 | 1013.4 |
| 20260906013247 | 30 | 204 | 0.0 | 0.0 | 0.00 | 0.00 | 0.00 | 62 | 1013.4 |
| 20260906011748 | 31 | 204 | 0.0 | 0.0 | 0.00 | 0.00 | 0.00 | 59 | 1013.2 |
| 20260906011247 | 31 | 204 | 0.0 | 0.0 | 0.00 | 0.00 | 0.00 | 58 | 1013.2 |
| 20260906010748 | 31 | 204 | 0.0 | 0.0 | 0.00 | 0.00 | 0.00 | 57 | 1013.2 |
| 20260906010248 | 32 | 204 | 0.0 | 0.0 | 0.00 | 0.00 | 0.00 | 56 | 1013.0 |
| 20260906005748 | 32 | 204 | 0.0 | 0.0 | 0.00 | 0.00 | 0.00 | 55 | 1013.0 |
| 20260906005247 | 32 | 204 | 0.0 | 0.0 | 0.00 | 0.00 | 0.00 | 54 | 1013.0 |
| 20260906004745 | 32 | 204 | 0.0 | 0.0 | 0.00 | 0.00 | 0.00 | 54 | 1013.0 |
| 20260906004239 | 32 | 204 | 0.0 | 0.0 | 0.00 | 0.00 | 0.00 | 54 | 1013.0 |
| 20260906003739 | 32 | 204 | 0.0 | 0.0 | 0.00 | 0.00 | 0.00 | 53 | 1013.0 |
| 20260906003237 | 32 | 204 | 0.0 | 0.0 | 0.00 | 0.00 | 0.00 | 53 | 1013.2 |
| 20260906002737 | 33 | 204 | 0.0 | 0.0 | 0.00 | 0.00 | 0.00 | 53 | 1012.9 |
| 20260906002240 | 33 | 204 | 0.0 | 1.6 | 0.00 | 0.00 | 0.00 | 52 | 1012.9 |
| 20260906001738 | 33 | 204 | 0.0 | 3.2 | 0.00 | 0.00 | 0.00 | 51 | 1012.9 |
| 20260906000736 | 33 | 204 | 0.0 | 0.0 | 0.00 | 0.00 | 0.00 | 50 | 1013.0 |
| 20260906000234 | 33 | 204 | 0.0 | 0.0 | 0.00 | 0.00 | 0.00 | 50 | 1013.0 |
| 20260905235734 | 34 | 204 | 0.0 | 0.0 | 0.00 | 0.00 | 0.00 | 49 | 1013.2 |
| 20260905235233 | 34 | 204 | 0.0 | 0.0 | 0.00 | 0.00 | 0.00 | 49 | 1013.2 |
| 20260905234732 | 34 | 204 | 0.0 | 0.0 | 0.00 | 0.00 | 0.00 | 48 | 1013.2 |
| 20260905233729 | 35 | 204 | 0.0 | 0.0 | 0.00 | 0.00 | 0.00 | 47 | 1013.2 |
| 20260905233226 | 35 | 204 | 0.0 | 1.6 | 0.00 | 0.00 | 0.00 | 46 | 1013.3 |
| 20260905232724 | 35 | 204 | 0.0 | 1.6 | 0.00 | 0.00 | 0.00 | 47 | 1013.2 |
| 20260905232222 | 35 | 204 | 0.0 | 1.6 | 0.00 | 0.00 | 0.00 | 46 | 1013.2 |
| 20260905231722 | 35 | 204 | 0.0 | 1.6 | 0.00 | 0.00 | 0.00 | 45 | 1013.2 |
| 20260905230720 | 36 | 203 | 0.0 | 1.6 | 0.00 | 0.00 | 0.00 | 44 | 1013.0 |
| 20260905230219 | 36 | 203 | 0.0 | 6.4 | 0.00 | 0.00 | 0.00 | 44 | 1013.0 |
| 20260905225713 | 36 | 202 | 1.6 | 6.4 | 0.00 | 0.00 | 0.00 | 44 | 1013.0 |
| 20260905224701 | 36 | 132 | 3.2 | 8.0 | 0.00 | 0.00 | 0.00 | 43 | 1013.0 |
| 20260905224155 | 36 | 161 | 1.6 | 8.0 | 0.00 | 0.00 | 0.00 | 41 | 1012.9 |
| 20260905223648 | 37 | 140 | 1.6 | 6.4 | 0.00 | 0.00 | 0.00 | 42 | 1012.9 |
| 20260905223142 | 37 | 137 | 1.6 | 8.0 | 0.00 | 0.00 | 0.00 | 41 | 1013.2 |
| 20260905222636 | 37 | 137 | 1.6 | 8.0 | 0.00 | 0.00 | 0.00 | 42 | 1013.3 |
| 20260905222131 | 37 | 102 | 1.6 | 4.8 | 0.00 | 0.00 | 0.00 | 40 | 1013.3 |
| 20260905221624 | 37 | 264 | 1.6 | 4.8 | 0.00 | 0.00 | 0.00 | 40 | 1013.3 |
| 20260905221118 | 38 | 255 | 1.6 | 4.8 | 0.00 | 0.00 | 0.00 | 40 | 1013.3 |
| 20260905220613 | 37 | 145 | 1.6 | 6.4 | 0.00 | 0.00 | 0.00 | 40 | 1013.5 |
| 20260905215601 | 38 | 185 | 1.6 | 8.0 | 0.00 | 0.00 | 0.00 | 41 | 1013.4 |
| 20260905214551 | 37 | 196 | 3.2 | 8.0 | 0.00 | 0.00 | 0.00 | 42 | 1013.4 |
| 20260905214043 | 37 | 85 | 3.2 | 9.7 | 0.00 | 0.00 | 0.00 | 41 | 1013.5 |
| 20260905213537 | 37 | 84 | 3.2 | 9.7 | 0.00 | 0.00 | 0.00 | 40 | 1013.5 |
| 20260905213031 | 38 | 146 | 1.6 | 8.0 | 0.00 | 0.00 | 0.00 | 40 | 1013.4 |
| 20260905212525 | 37 | 257 | 1.6 | 6.4 | 0.00 | 0.00 | 0.00 | 41 | 1013.5 |
| 20260905212023 | 38 | 173 | 3.2 | 12.9 | 0.00 | 0.00 | 0.00 | 41 | 1013.6 |
| 20260905211523 | 37 | 116 | 4.8 | 14.5 | 0.00 | 0.00 | 0.00 | 41 | 1013.6 |
| 20260905211022 | 37 | 123 | 3.2 | 14.5 | 0.00 | 0.00 | 0.00 | 40 | 1013.6 |
| 20260905210521 | 38 | 144 | 1.6 | 8.0 | 0.00 | 0.00 | 0.00 | 40 | 1013.8 |
| 20260905210021 | 37 | 265 | 1.6 | 6.4 | 0.00 | 0.00 | 0.00 | 39 | 1013.8 |
| 20260905205521 | 38 | 239 | 3.2 | 8.0 | 0.00 | 0.00 | 0.00 | 40 | 1013.9 |
| 20260905205022 | 37 | 159 | 3.2 | 9.7 | 0.00 | 0.00 | 0.00 | 41 | 1014.0 |
| 20260905204521 | 37 | 81 | 1.6 | 9.7 | 0.00 | 0.00 | 0.00 | 40 | 1014.1 |
| 20260905204021 | 37 | 150 | 1.6 | 9.7 | 0.00 | 0.00 | 0.00 | 40 | 1014.1 |
| 20260905203518 | 37 | 258 | 3.2 | 9.7 | 0.00 | 0.00 | 0.00 | 42 | 1014.2 |
| 20260905203016 | 37 | 133 | 4.8 | 11.3 | 0.00 | 0.00 | 0.00 | 41 | 1014.2 |
| 20260905202516 | 37 | 161 | 4.8 | 11.3 | 0.00 | 0.00 | 0.00 | 41 | 1014.3 |
| 20260905202017 | 37 | 90 | 3.2 | 12.9 | 0.00 | 0.00 | 0.00 | 42 | 1014.3 |
| 20260905201017 | 37 | 88 | 4.8 | 14.5 | 0.00 | 0.00 | 0.00 | 42 | 1014.4 |
| 20260905200017 | 37 | 161 | 4.8 | 17.7 | 0.00 | 0.00 | 0.00 | 41 | 1014.6 |
| 20260905195517 | 37 | 169 | 3.2 | 17.7 | 0.00 | 0.00 | 0.00 | 41 | 1014.6 |
| 20260905195010 | 37 | 177 | 3.2 | 9.7 | 0.00 | 0.00 | 0.00 | 42 | 1014.6 |
| 20260905193958 | 37 | 126 | 6.4 | 16.1 | 0.00 | 0.00 | 0.00 | 42 | 1014.7 |
| 20260905192947 | 37 | 136 | 4.8 | 11.3 | 0.00 | 0.00 | 0.00 | 41 | 1014.8 |
| 20260905192441 | 37 | 123 | 4.8 | 11.3 | 0.00 | 0.00 | 0.00 | 42 | 1014.9 |
| 20260905191939 | 37 | 165 | 4.8 | 12.9 | 0.00 | 0.00 | 0.00 | 42 | 1014.9 |
| 20260905191439 | 37 | 140 | 3.2 | 12.9 | 0.00 | 0.00 | 0.00 | 42 | 1015.0 |
| 20260905190939 | 37 | 271 | 3.2 | 11.3 | 0.00 | 0.00 | 0.00 | 43 | 1015.1 |
| 20260905190439 | 37 | 167 | 3.2 | 11.3 | 0.00 | 0.00 | 0.00 | 43 | 1015.1 |
| 20260905185937 | 37 | 101 | 4.8 | 11.3 | 0.00 | 0.00 | 0.00 | 42 | 1015.0 |
| 20260905185437 | 37 | 163 | 4.8 | 14.5 | 0.00 | 0.00 | 0.00 | 42 | 1015.1 |
| 20260905184935 | 37 | 86 | 3.2 | 14.5 | 0.00 | 0.00 | 0.00 | 42 | 1015.0 |
| 20260905184435 | 37 | 155 | 1.6 | 9.7 | 0.00 | 0.00 | 0.00 | 44 | 1015.1 |
| 20260905183433 | 37 | 146 | 1.6 | 11.3 | 0.00 | 0.00 | 0.00 | 46 | 1015.3 |
| 20260905182933 | 36 | 245 | 1.6 | 11.3 | 0.00 | 0.00 | 0.00 | 48 | 1015.5 |